User: anonymous   Login
Location: Clyde
(45.1830°S, 169.3170°E)
Time: 08:50:05
(UTC+12:00)
Language:

Cosmos 1151 Rocket - Orbit

View from above orbital plane
View from above orbital plane
View from above satellite
View from above satellite

Ground track
Ground track

The orbit data is extracted from the following two-line orbital elements,

1 11672U 80005B   19140.46814318  .00000067  00000-0  45428-5 0  9991
2 11672  82.5132 136.4770 0017691 141.3663 218.8824 14.87959964127821
Epoch (UTC): 20 May 2019 11:14:07
Eccentricity: 0.0017691
inclination: 82.5132°
perigee height: 592 km
apogee height: 616 km
right ascension of ascending node: 136.4770°
argument of perigee: 141.3663°
revolutions per day: 14.87959964
mean anomaly at epoch: 218.8824°
orbit number at epoch: 12782

The dashed part of the orbit path shows where the satellite is in the earth's shadow,  

DLR